Location: Newark
(52.2583°N, 7.1190°W)
Time: 20:33:21
(UTC+00:00)

S-56A Canister/Altair - Pass Details

Date: 19 November 2019
Orbit: 633 x 2499 km, 38.9° (Epoch: 10 December)

Event Time Altitude Azimuth Distance (km) Brightness Sun altitude
Rises 17:23:04 0° 224° (SW) 5,211 13.2 -7.9°
Reaches altitude 10° 17:27:44 10° 212° (SSW) 3,866 12.0 -8.6°
Maximum altitude 17:34:38 23° 166° (SSE) 2,460 10.2 -9.5°
Drops below altitude 10° 17:39:52 10° 117° (ESE) 2,849 10.0 -10.3°
Enters shadow 17:41:14 - 109° (ESE) 3,165 10.2 -10.5°
